Weather History for Leonardtown, MD

Change the Weather History Date:

Saturday, March 15, 2014

  Actual Average (KNHK) Record (KNHK)
Temperature  
Mean Temperature 58 °F -  
Max Temperature 68 °F 57 °F 80 °F (2007)
Min Temperature 48 °F 36 °F 26 °F (1979)
Degree Days  
Heating Degree Days 7    
Growing Degree Days 8 (Base 50)    
Moisture  
Dew Point 25 °F    
Average Humidity 31    
Maximum Humidity 50    
Minimum Humidity 18    
Precipitation  
Precipitation 0.00 in - - ()
Sea Level Pressure  
Sea Level Pressure 29.92 in    
Wind  
Wind Speed 10 mph (WSW)    
Max Wind Speed 18 mph    
Max Gust Speed 26 mph    
Visibility 10 miles    
Events      
Averages and records for this station are not official NWS values.
T = Trace of Precipitation, MM = Missing Value Source: NWS Daily Summary

Daily Weather History Graph

Daily Weather History Graph

Search for Another Location

Airport:

Trip Planner

Search our weather history database for the weather conditions in past years. The results will help you decide how hot, cold, wet, or windy it might be!

Date:

Astronomy

Mar. 15, 2014 Rise Set
Actual Time 7:17 AM EDT 7:13 PM EDT
Civil Twilight 6:51 AM EDT 7:39 PM EDT
Nautical Twilight 6:20 AM EDT 8:10 PM EDT
Astronomical Twilight 5:49 AM EDT 8:41 PM EDT
Moon 6:30 PM EDT (3/15) 6:27 AM EDT (3/15)
Length of Visible Light 12h 48m
Length of Day
11h 55m
Waxing Gibbous, 99% of the Moon is Illuminated
Mar 15
Waxing Gibbous
Mar 16
Full
Mar 23
Last Quarter
Mar 30
New
Apr 7
First Quarter

Hourly Weather History & Observations

Time (EDT) Temp. Dew Point Humidity Pressure Visibility Wind Dir Wind Speed Gust Speed Precip Events Conditions
12:03 AM 51.8 °F 17.6 °F 26% 29.96 in 10.0 mi SSW 11.5 mph 18.4 mph N/A   Clear
12:23 AM 51.8 °F 19.4 °F 28% 29.96 in 10.0 mi SSW 10.4 mph 16.1 mph N/A   Scattered Clouds
12:43 AM 51.8 °F 19.4 °F 28% 29.94 in 10.0 mi SSW 11.5 mph 17.3 mph N/A   Scattered Clouds
1:03 AM 51.8 °F 19.4 °F 28% 29.94 in 10.0 mi SSW 11.5 mph 17.3 mph N/A   Clear
1:23 AM 51.8 °F 21.2 °F 30% 29.94 in 10.0 mi SSW 12.7 mph 17.3 mph N/A   Scattered Clouds
1:44 AM 51.8 °F 21.2 °F 30% 29.93 in 10.0 mi SSW 12.7 mph 18.4 mph N/A   Scattered Clouds
2:04 AM 51.8 °F 21.2 °F 30% 29.93 in 10.0 mi SSW 12.7 mph 19.6 mph N/A   Scattered Clouds
2:24 AM 51.8 °F 23.0 °F 33% 29.93 in 10.0 mi SSW 16.1 mph 19.6 mph N/A   Mostly Cloudy
2:44 AM 51.8 °F 23.0 °F 33% 29.93 in 10.0 mi SW 11.5 mph 18.4 mph N/A   Overcast
3:04 AM 51.8 °F 23.0 °F 33% 29.93 in 10.0 mi SW 11.5 mph 16.1 mph N/A   Overcast
3:24 AM 51.8 °F 24.8 °F 35% 29.92 in 10.0 mi SW 11.5 mph 16.1 mph N/A   Overcast
3:44 AM 51.8 °F 24.8 °F 35% 29.91 in 10.0 mi SSW 9.2 mph - N/A   Overcast
4:04 AM 51.8 °F 26.6 °F 38% 29.91 in 10.0 mi SW 10.4 mph - N/A   Overcast
4:24 AM 51.8 °F 26.6 °F 38% 29.90 in 10.0 mi SSW 10.4 mph - N/A   Overcast
4:44 AM 51.8 °F 26.6 °F 38% 29.89 in 10.0 mi SSW 9.2 mph 16.1 mph N/A   Overcast
5:04 AM 51.8 °F 26.6 °F 38% 29.90 in 10.0 mi SW 10.4 mph 16.1 mph N/A   Overcast
5:24 AM 51.8 °F 28.4 °F 41% 29.89 in 10.0 mi SW 8.1 mph - N/A   Mostly Cloudy
5:44 AM 51.8 °F 28.4 °F 41% 29.89 in 10.0 mi SSW 9.2 mph - N/A   Scattered Clouds
6:04 AM 50.0 °F 28.4 °F 43% 29.88 in 10.0 mi SW 8.1 mph 16.1 mph N/A   Clear
6:24 AM 50.0 °F 28.4 °F 43% 29.89 in 10.0 mi SW 6.9 mph - N/A   Clear
6:44 AM 48.2 °F 28.4 °F 46% 29.89 in 10.0 mi SW 5.8 mph - N/A   Clear
7:04 AM 48.2 °F 30.2 °F 50% 29.88 in 10.0 mi SW 6.9 mph - N/A   Clear
7:24 AM 48.2 °F 30.2 °F 50% 29.89 in 10.0 mi SW 9.2 mph - N/A   Clear
7:44 AM 48.2 °F 30.2 °F 50% 29.89 in 10.0 mi SW 8.1 mph - N/A   Clear
8:04 AM 50.0 °F 30.2 °F 47% 29.90 in 10.0 mi SW 9.2 mph - N/A   Clear
8:24 AM 50.0 °F 30.2 °F 47% 29.90 in 10.0 mi SW 9.2 mph - N/A   Scattered Clouds
8:44 AM 51.8 °F 30.2 °F 44% 29.90 in 10.0 mi SW 10.4 mph - N/A   Scattered Clouds
9:04 AM 51.8 °F 28.4 °F 41% 29.91 in 10.0 mi SW 10.4 mph 16.1 mph N/A   Clear
9:24 AM 55.4 °F 28.4 °F 36% 29.91 in 10.0 mi WSW 11.5 mph 17.3 mph N/A   Mostly Cloudy
9:44 AM 55.4 °F 28.4 °F 36% 29.91 in 10.0 mi WSW 12.7 mph 19.6 mph N/A   Overcast
10:04 AM 55.4 °F 28.4 °F 36% 29.91 in 10.0 mi WSW 8.1 mph - N/A   Overcast
10:25 AM 55.4 °F 30.2 °F 38% 29.91 in 10.0 mi WSW 9.2 mph - N/A   Overcast
10:45 AM 59.0 °F 30.2 °F 34% 29.91 in 10.0 mi WSW 11.5 mph 17.3 mph N/A   Overcast
11:05 AM 60.8 °F 30.2 °F 31% 29.92 in 10.0 mi West 11.5 mph - N/A   Mostly Cloudy
11:25 AM 59.0 °F 30.2 °F 34% 29.92 in 10.0 mi West 12.7 mph - N/A   Mostly Cloudy
11:45 AM 60.8 °F 30.2 °F 31% 29.92 in 10.0 mi WSW 12.7 mph 19.6 mph N/A   Mostly Cloudy
12:05 PM 62.6 °F 30.2 °F 30% 29.91 in 10.0 mi WSW 15.0 mph 21.9 mph N/A   Scattered Clouds
12:25 PM 62.6 °F 30.2 °F 30% 29.91 in 10.0 mi West 9.2 mph 19.6 mph N/A   Clear
12:45 PM 64.4 °F 30.2 °F 28% 29.91 in 10.0 mi West 15.0 mph 21.9 mph N/A   Clear
1:05 PM 64.4 °F 30.2 °F 28% 29.90 in 10.0 mi WSW 15.0 mph 23.0 mph N/A   Clear
1:25 PM 62.6 °F 30.2 °F 30% 29.90 in 10.0 mi West 12.7 mph 26.5 mph N/A   Clear
1:45 PM 64.4 °F 30.2 °F 28% 29.89 in 10.0 mi WNW 13.8 mph 18.4 mph N/A   Clear
2:05 PM 64.4 °F 30.2 °F 28% 29.89 in 10.0 mi WNW 8.1 mph 20.7 mph N/A   Scattered Clouds
2:25 PM 64.4 °F 30.2 °F 28% 29.88 in 10.0 mi West 15.0 mph 20.7 mph N/A   Clear
2:45 PM 66.2 °F 30.2 °F 26% 29.88 in 10.0 mi West 18.4 mph 25.3 mph N/A   Scattered Clouds
3:05 PM 64.4 °F 30.2 °F 28% 29.88 in 10.0 mi WNW 13.8 mph 18.4 mph N/A   Clear
3:25 PM 66.2 °F 30.2 °F 26% 29.88 in 10.0 mi West 11.5 mph 17.3 mph N/A   Clear
3:45 PM 66.2 °F 30.2 °F 26% 29.87 in 10.0 mi West 15.0 mph 20.7 mph N/A   Clear
4:05 PM 68.0 °F 28.4 °F 23% 29.87 in 10.0 mi West 9.2 mph 20.7 mph N/A   Clear
4:25 PM 68.0 °F 28.4 °F 23% 29.87 in 10.0 mi West 12.7 mph 21.9 mph N/A   Clear
4:45 PM 68.0 °F 24.8 °F 20% 29.87 in 10.0 mi West 12.7 mph 19.6 mph N/A   Clear
5:05 PM 68.0 °F 23.0 °F 18% 29.87 in 10.0 mi WNW 10.4 mph 20.7 mph N/A   Clear
5:25 PM 68.0 °F 23.0 °F 18% 29.88 in 10.0 mi West 12.7 mph 26.5 mph N/A   Clear
5:45 PM 68.0 °F 23.0 °F 18% 29.88 in 10.0 mi WNW 13.8 mph 20.7 mph N/A   Clear
6:05 PM 66.2 °F 23.0 °F 19% 29.89 in 10.0 mi WNW 9.2 mph - N/A   Clear
6:25 PM 64.4 °F 21.2 °F 19% 29.90 in 10.0 mi West 6.9 mph - N/A   Clear
6:45 PM 64.4 °F 21.2 °F 19% 29.92 in 10.0 mi WNW 3.5 mph - N/A   Clear
7:05 PM 64.4 °F 19.4 °F 18% 29.93 in 10.0 mi NNW 4.6 mph - N/A   Clear
7:26 PM 60.8 °F 19.4 °F 20% 29.94 in 10.0 mi Calm Calm - N/A   Clear
7:46 PM 59.0 °F 19.4 °F 22% 29.95 in 10.0 mi Calm Calm - N/A   Clear
8:06 PM 59.0 °F 19.4 °F 22% 29.97 in 10.0 mi Calm Calm - N/A   Clear
8:26 PM 57.2 °F 19.4 °F 23% 29.98 in 10.0 mi Calm Calm - N/A   Clear
8:46 PM 55.4 °F 19.4 °F 25% 29.99 in 10.0 mi Calm Calm - N/A   Clear
9:06 PM 55.4 °F 19.4 °F 25% 30.00 in 10.0 mi Calm Calm - N/A   Clear
9:26 PM 55.4 °F 19.4 °F 25% 30.01 in 10.0 mi Calm Calm - N/A   Clear
9:46 PM 55.4 °F 19.4 °F 25% 30.02 in 10.0 mi Calm Calm - N/A   Clear
10:06 PM 53.6 °F 19.4 °F 26% 30.03 in 10.0 mi Calm Calm - N/A   Clear
10:26 PM 53.6 °F 19.4 °F 26% 30.04 in 10.0 mi Calm Calm - N/A   Clear
10:46 PM 51.8 °F 21.2 °F 30% 30.04 in 10.0 mi Calm Calm - N/A   Clear
11:06 PM 50.0 °F 21.2 °F 32% 30.05 in 10.0 mi Calm Calm - N/A   Clear
11:26 PM 50.0 °F 21.2 °F 32% 30.06 in 10.0 mi East 3.5 mph - N/A   Clear
11:46 PM 48.2 °F 23.0 °F 37% 30.05 in 10.0 mi Calm Calm - N/A   Clear